FW9068 Weather Reports


time (UTC)temp
C
wind
direction
speed
KPH
gust
KPH
rain 1hr
cm
rain 24hr
cm
rain mn
cm
humidity
%
barometer
mb
20260507223051 15 0 0.0 6.4 0.00 0.33 0.08 37 1005.2
20260507221551 15 0 3.2 9.7 0.00 0.33 0.08 35 1004.9
20260507220048 16 129 1.6 12.9 0.00 0.33 0.08 35 1004.9
20260507214551 16 135 1.6 6.4 0.00 0.46 0.08 37 1004.6
20260507213053 16 0 0.0 4.8 0.00 0.46 0.08 36 1004.8
20260507211551 17 0 1.6 9.7 0.00 0.46 0.08 34 1004.9
20260507210103 18 132 0.0 9.7 0.00 0.46 0.08 33 1004.7
20260507204551 18 133 1.6 8.0 0.00 0.76 0.08 33 1004.7
20260507203058 18 133 1.6 6.4 0.00 0.76 0.08 34 1004.6
20260507201547 18 128 1.6 11.3 0.00 0.76 0.08 34 1004.7
20260507200056 18 111 0.0 20.9 0.00 0.76 0.08 36 1004.7
20260507194552 18 148 1.6 6.4 0.00 0.99 0.08 37 1004.8
20260507193049 18 147 3.2 11.3 0.00 0.99 0.08 35 1004.9
20260507191552 18 138 0.0 11.3 0.00 0.99 0.08 37 1004.9
20260507190048 18 134 1.6 8.0 0.00 0.99 0.08 36 1005.0
20260507184547 18 134 1.6 9.7 0.00 1.04 0.08 39 1005.0
20260507183051 18 111 1.6 9.7 0.00 1.04 0.08 39 1005.1
20260507181552 17 165 1.6 8.0 0.00 1.04 0.08 39 1005.1
20260507180100 18 131 0.0 11.3 0.00 1.04 0.08 41 1005.2
20260507174603 17 0 3.2 9.7 0.00 1.04 0.08 41 1005.2
20260507173054 17 165 1.6 17.7 0.00 1.04 0.08 43 1005.4
20260507171605 17 141 1.6 9.7 0.00 1.04 0.08 48 1005.3
20260507170053 17 0 0.0 6.4 0.00 1.04 0.08 51 1005.6
20260507164552 18 0 0.0 6.4 0.00 1.04 0.08 50 1005.6
20260507163052 16 157 1.6 11.3 0.00 1.04 0.08 57 1005.9
20260507161548 16 127 1.6 12.9 0.00 1.04 0.08 53 1005.9
20260507160053 17 124 1.6 6.4 0.00 1.04 0.08 53 1005.9
20260507154550 16 0 1.6 8.0 0.00 1.04 0.08 56 1006.4
20260507153049 16 139 3.2 9.7 0.00 1.04 0.08 54 1006.5
20260507151550 16 136 3.2 9.7 0.00 1.04 0.08 54 1006.7
20260507150052 16 0 0.0 9.7 0.00 1.04 0.08 59 1006.7
20260507144552 16 129 0.0 4.8 0.00 1.04 0.08 62 1006.7
20260507143051 15 0 0.0 9.7 0.00 1.04 0.08 59 1006.7
20260507141548 15 136 0.0 6.4 0.00 1.04 0.08 63 1006.7
20260507140106 14 139 1.6 4.8 0.00 1.04 0.08 63 1006.7
20260507134554 13 129 0.0 3.2 0.00 1.04 0.08 69 1006.8
20260507133058 13 0 0.0 4.8 0.00 1.04 0.08 68 1007.0
20260507131549 12 0 0.0 4.8 0.00 1.04 0.08 71 1007.1
20260507124607 12 136 0.0 4.8 0.00 1.04 0.08 76 1007.3
20260507123045 11 0 0.0 1.6 0.00 1.04 0.08 81 1007.4
20260507121549 10 124 0.0 3.2 0.00 1.04 0.08 84 1007.4
20260507120052 9 132 0.0 1.6 0.00 1.04 0.08 89 1007.4
20260507114609 8 0 0.0 3.2 0.00 1.04 0.08 91 1007.2
20260507113056 8 0 0.0 0.0 0.00 1.04 0.08 92 1007.2
20260507111555 8 0 0.0 1.6 0.00 1.04 0.08 94 1007.4
20260507110051 8 0 0.0 1.6 0.00 1.04 0.08 94 1006.9
20260507104555 8 0 0.0 3.2 0.00 1.04 0.08 94 1007.0
20260507103047 8 127 0.0 3.2 0.00 1.04 0.08 94 1007.0
20260507101551 8 0 0.0 1.6 0.00 1.04 0.08 94 1006.8
20260507100049 8 0 0.0 1.6 0.00 1.04 0.08 95 1006.8
20260507094547 8 0 0.0 1.6 0.00 1.04 0.08 95 1006.8
20260507093052 8 0 0.0 1.6 0.00 1.04 0.08 95 1006.7
20260507091550 8 0 0.0 1.6 0.05 1.04 0.08 94 1006.5
20260507090047 8 0 0.0 1.6 0.08 1.04 0.08 94 1006.8
20260507084550 8 0 0.0 1.6 0.08 1.04 0.08 93 1006.4
20260507083053 8 0 0.0 4.8 0.08 1.04 0.08 92 1006.3
20260507081551 9 0 0.0 4.8 0.03 0.99 0.03 90 1006.4
20260507080051 9 138 1.6 11.3 0.00 0.97 0.00 89 1006.2
20260507074607 9 135 0.0 8.0 0.00 0.97 0.00 89 1006.0
20260507073050 10 138 0.0 4.8 0.00 0.97 0.00 90 1005.9
20260507071551 10 134 0.0 4.8 0.00 0.97 0.00 90 1006.3
20260507070106 10 79 0.0 4.8 0.00 0.97 0.00 91 1005.8
20260507064550 10 0 0.0 8.0 0.00 0.97 0.00 91 1005.8
20260507063058 10 136 0.0 3.2 0.00 0.97 0.00 91 1005.6
20260507061549 10 129 0.0 4.8 0.00 0.97 0.00 91 1005.7
20260507060048 10 0 0.0 4.8 0.00 0.97 0.00 92 1005.9
20260507054553 11 0 0.0 4.8 0.00 0.97 0.00 92 1005.8
20260507053052 11 0 0.0 4.8 0.00 0.97 0.00 92 1005.9
20260507051551 11 0 0.0 3.2 0.00 0.97 0.00 92 1005.4
20260507050048 11 128 0.0 6.4 0.00 0.97 0.00 93 1005.6
20260507044552 12 127 0.0 1.6 0.00 0.97 0.00 93 1005.8
20260507043049 12 0 0.0 1.6 0.00 0.97 0.00 93 1005.6
20260507041549 12 142 0.0 4.8 0.00 0.97 0.00 93 1005.4
20260507040049 12 0 0.0 4.8 0.00 0.97 0.00 93 1005.3
20260507034547 13 141 0.0 11.3 0.00 0.97 0.97 95 1004.9
20260507033102 14 123 1.6 8.0 0.00 0.97 0.97 96 1005.2
20260507031604 15 0 0.0 6.4 0.00 0.97 0.97 96 1004.8
20260507030053 14 115 0.0 3.2 0.00 0.97 0.97 96 1004.5
20260507024552 14 0 0.0 1.6 0.00 0.97 0.97 96 1004.4
20260507023052 14 0 0.0 1.6 0.00 0.97 0.97 96 1004.6
20260507021553 13 0 0.0 1.6 0.00 0.97 0.97 96 1004.6
20260507020051 13 0 0.0 1.6 0.00 0.97 0.97 96 1004.8
20260507014554 13 0 0.0 3.2 0.00 0.97 0.97 96 1005.0
20260507013101 12 117 0.0 1.6 0.00 0.97 0.97 96 1005.1
20260507011552 12 0 0.0 1.6 0.00 0.97 0.97 96 1005.2
20260507010055 12 0 0.0 3.2 0.03 0.97 0.97 96 1005.1
20260507004551 12 114 0.0 3.2 0.05 0.97 0.97 96 1005.3
20260507003047 13 114 1.6 3.2 0.10 0.97 0.97 96 1005.3
20260507001552 13 123 0.0 4.8 0.13 0.97 0.97 96 1005.2
20260507000055 13 0 0.0 6.4 0.10 0.94 0.94 96 1005.0
20260506234554 13 0 1.6 4.8 0.10 0.91 0.91 96 1005.0
20260506233104 13 114 0.0 4.8 0.08 0.86 0.86 96 1005.1
20260506231553 13 97 0.0 4.8 0.08 0.84 0.84 95 1005.3
20260506224549 13 117 0.0 6.4 0.15 0.81 0.81 95 1005.4